EW1160 Weather Reports


Display with metric or nautical units.
time (UTC)temp
F
wind
direction
speed
MPH
gust
MPH
rain 1hr
in
rain 24hr
in
rain mn
in
humidity
%
barometer
mb
20260503054544 36 170 0.0 0.0 0.00 0.00 0.00 76 1012.3
20260503053018 36 177 0.0 0.0 0.00 0.00 0.00 76 1012.4
20260503051515 36 175 0.0 0.0 0.00 0.00 0.00 75 1012.6
20260503050058 36 177 0.0 0.0 0.00 0.00 0.00 74 1012.7
20260503044558 37 178 0.0 0.0 0.00 0.00 0.00 74 1012.9
20260503043048 37 174 0.0 0.0 0.00 0.00 0.00 74 1012.9
20260503041546 37 174 0.0 0.0 0.00 0.00 0.00 74 1013.0
20260503040042 37 164 0.0 0.0 0.00 0.00 0.00 73 1013.1
20260503034540 37 179 0.0 0.0 0.00 0.00 0.00 73 1013.1
20260503033038 37 177 0.0 0.0 0.00 0.00 0.00 73 1013.2
20260503031537 37 169 0.0 0.0 0.00 0.00 0.00 73 1013.3
20260503030035 38 156 0.0 0.0 0.00 0.00 0.00 72 1013.4
20260503024535 38 167 0.0 0.0 0.00 0.00 0.00 71 1013.5
20260503023023 38 163 0.0 0.0 0.00 0.00 0.00 70 1013.8
20260503021522 39 163 0.0 0.0 0.00 0.00 0.00 69 1013.8
20260503020022 39 167 0.0 0.0 0.00 0.00 0.00 68 1013.7
20260503014522 40 183 0.0 0.0 0.00 0.00 0.00 67 1013.7
20260503013021 40 170 0.0 0.0 0.00 0.00 0.00 66 1013.7
20260503011523 41 168 0.0 0.0 0.00 0.00 0.00 64 1013.7
20260503010026 42 169 0.0 0.0 0.00 0.00 0.00 61 1013.6
20260503004520 43 164 0.0 0.0 0.00 0.00 0.00 59 1013.6
20260503003019 44 164 0.0 0.0 0.00 0.00 0.00 57 1013.6
20260503001501 45 164 0.0 0.0 0.00 0.00 0.00 53 1013.6
20260503000117 46 164 0.0 0.0 0.00 0.00 0.00 52 1013.6
20260503000000 46 164 0.0 0.0 0.00 0.00 0.00 52 1013.6
20260502234552 46 137 0.0 0.0 0.00 0.00 0.00 51 1013.7
20260502233041 47 123 0.0 0.0 0.00 0.00 0.00 50 1013.7
20260502231525 47 359 0.0 0.0 0.00 0.00 0.00 49 1013.8
20260502230022 47 359 0.0 0.0 0.00 0.00 0.00 50 1013.9
20260502224503 47 359 0.0 0.0 0.00 0.00 0.00 50 1013.9
20260502223100 45 359 0.0 0.0 0.00 0.00 0.00 51 1014.2
20260502221541 45 359 0.0 0.0 0.00 0.00 0.00 52 1014.2
20260502220050 45 325 0.0 0.0 0.00 0.00 0.00 53 1014.3
20260502214522 46 20 0.0 0.0 0.00 0.00 0.00 53 1014.3
20260502213021 45 12 0.0 0.0 0.00 0.00 0.00 52 1014.3
20260502211509 45 4 0.0 0.0 0.00 0.00 0.00 56 1014.3
20260502210006 44 4 0.0 0.0 0.00 0.00 0.00 56 1014.4
20260502204505 44 330 0.0 0.0 0.00 0.00 0.00 56 1014.4
20260502203004 43 23 0.0 0.0 0.00 0.00 0.00 54 1014.6
20260502201503 43 23 0.0 0.0 0.00 0.00 0.00 54 1014.7
20260502200004 43 23 0.0 0.0 0.00 0.00 0.00 57 1014.8
20260502194502 43 22 0.0 0.0 0.00 0.00 0.00 56 1015.0
20260502193100 43 22 0.0 0.0 0.00 0.00 0.00 60 1015.2
20260502191545 42 22 0.0 0.0 0.00 0.00 0.00 60 1015.3
20260502190047 42 22 0.0 0.0 0.00 0.00 0.00 63 1015.4
20260502184522 42 14 0.0 0.0 0.00 0.00 0.00 63 1015.4
20260502183021 41 11 0.0 0.0 0.00 0.00 0.00 63 1015.5
20260502181505 41 8 0.0 0.0 0.00 0.00 0.00 64 1015.6
20260502163016 41 4 0.0 0.0 0.00 0.00 0.00 66 1015.7
20260502161511 41 354 0.0 0.0 0.00 0.00 0.00 68 1015.7
20260502151530 41 15 0.0 0.0 0.00 0.00 0.00 66 1015.7
20260502123036 39 282 0.0 0.0 0.00 0.00 0.00 77 1015.6
20260502121516 39 4 0.0 0.0 0.00 0.00 0.00 78 1015.6
20260502114555 38 308 0.0 0.0 0.00 0.00 0.00 81 1015.5
20260502113055 38 330 0.0 0.0 0.00 0.00 0.00 80 1015.3
20260502111538 38 239 0.0 0.0 0.00 0.00 0.00 80 1015.2
20260502110037 38 240 0.0 0.0 0.00 0.00 0.00 79 1015.3
20260502104517 38 241 0.0 0.0 0.00 0.00 0.00 78 1015.1
20260502103016 38 257 0.0 0.0 0.00 0.00 0.00 77 1015.1
20260502101618 38 272 0.0 0.0 0.00 0.00 0.00 76 1015.0
20260502100104 38 9 0.0 0.0 0.00 0.00 0.00 77 1014.9
20260502091523 38 204 0.0 0.0 0.00 0.00 0.00 77 1014.7
20260502071509 38 12 0.0 0.0 0.00 0.00 0.00 70 1014.4
20260502070024 38 16 0.0 0.0 0.00 0.00 0.00 70 1014.5
20260502064603 38 14 0.0 0.0 0.00 0.00 0.00 71 1014.6
20260502063053 38 16 0.0 0.0 0.00 0.00 0.00 71 1014.7
20260502061529 38 21 0.0 0.0 0.00 0.00 0.00 73 1014.8
20260502060029 38 8 0.0 0.0 0.00 0.00 0.00 73 1015.0